GW0910 Weather Reports


time (UTC)temp
C
wind
direction
speed
KPH
gust
KPH
rain 1hr
cm
rain 24hr
cm
rain mn
cm
humidity
%
barometer
mb
20260505062800 33 0.0 0.0 0.00 0.00 0.00 77 1009.2
20260505062258 33 0.0 0.0 0.00 0.00 0.00 77 1009.2
20260505061755 33 0.0 0.0 0.00 0.00 0.00 77 1009.2
20260505061253 33 0.0 0.0 0.00 0.00 0.00 78 1009.2
20260505060750 33 0.0 0.0 0.00 0.00 0.00 78 1009.2
20260505060247 33 0.0 0.0 0.00 0.00 0.00 77 1009.6
20260505055742 33 0.0 0.0 0.00 0.00 0.00 78 1009.6
20260505055238 33 0.0 0.0 0.00 0.00 0.00 77 1009.6
20260505054736 33 0.0 0.0 0.00 0.00 0.00 78 1009.6
20260505054234 33 0.0 0.0 0.00 0.00 0.00 78 1009.6
20260505053732 33 0.0 0.0 0.00 0.00 0.00 79 1009.6
20260505053228 33 0.0 0.0 0.00 0.00 0.00 79 1009.6
20260505052725 32 0.0 0.0 0.00 0.00 0.00 81 1009.6
20260505052222 32 0.0 0.0 0.00 0.00 0.00 82 1009.9
20260505051719 32 0.0 0.0 0.00 0.00 0.00 82 1009.9
20260505051217 32 0.0 0.0 0.00 0.00 0.00 81 1009.9
20260505050715 32 0.0 0.0 0.00 0.00 0.00 83 1010.2
20260505050213 32 0.0 0.0 0.00 0.00 0.00 84 1009.9
20260505041642 31 0.0 0.0 0.00 0.00 0.00 85 1010.9
20260505041140 31 0.0 0.0 0.00 0.00 0.00 85 1010.6
20260505040637 31 0.0 0.0 0.00 0.00 0.00 85 1010.6
20260505040134 31 0.0 0.0 0.00 0.00 0.00 85 1010.6
20260505035630 31 0.0 0.0 0.00 0.00 0.00 85 1010.9
20260505035126 31 0.0 0.0 0.00 0.00 0.00 85 1010.9
20260505034623 31 0.0 0.0 0.00 0.00 0.00 86 1011.3
20260505034120 31 0.0 0.0 0.00 0.00 0.00 86 1010.9
20260505033617 31 0.0 0.0 0.00 0.00 0.00 86 1011.3
20260505033116 31 0.0 0.0 0.00 0.00 0.00 87 1011.3
20260505032613 31 0.0 0.0 0.00 0.00 0.00 87 1011.3
20260505032109 31 0.0 0.0 0.00 0.00 0.00 87 1011.3
20260505031607 31 0.0 0.0 0.00 0.00 0.00 87 1011.3
20260505031102 31 0.0 0.0 0.00 0.00 0.00 87 1011.3
20260505030559 31 0.0 0.0 0.00 0.00 0.00 87 1011.6
20260505030050 31 0.0 0.0 0.00 0.00 0.00 88 1011.3
20260505025546 31 0.0 0.0 0.00 0.00 0.00 87 1011.3
20260505025045 31 0.0 0.0 0.00 0.00 0.00 88 1011.3
20260505024542 31 0.0 0.0 0.00 0.00 0.00 88 1011.3
20260505024039 31 0.0 0.0 0.00 0.00 0.00 88 1011.6
20260505023536 31 0.0 0.0 0.00 0.00 0.00 87 1011.6
20260505023033 31 0.0 0.0 0.00 0.00 0.00 88 1011.6
20260505022531 31 0.0 0.0 0.00 0.00 0.00 88 1011.9
20260505022028 31 0.0 0.0 0.00 0.00 0.00 88 1011.9
20260505021524 30 0.0 0.0 0.00 0.00 0.00 88 1011.9
20260505021020 30 0.0 0.0 0.00 0.00 0.00 89 1011.9
20260505020515 30 0.0 0.0 0.00 0.00 0.00 89 1011.9
20260505020013 30 0.0 0.0 0.00 0.00 0.00 89 1011.9
20260505015509 30 0.0 0.0 0.00 0.00 0.00 88 1011.9
20260505015006 30 0.0 0.0 0.00 0.00 0.00 88 1012.3
20260505014503 30 0.0 0.0 0.00 0.00 0.00 88 1011.9
20260505014001 31 0.0 0.0 0.00 0.00 0.00 87 1012.3
20260505013457 31 0.0 0.0 0.00 0.00 0.00 86 1011.9
20260505012954 31 0.0 0.0 0.00 0.00 0.00 85 1012.3
20260505012453 31 0.0 0.0 0.00 0.00 0.00 84 1012.3
20260505011949 31 0.0 0.0 0.00 0.00 0.00 83 1012.3
20260505011445 31 0.0 0.0 0.00 0.00 0.00 81 1011.9
20260505010942 31 0.0 0.0 0.00 0.00 0.00 80 1011.9
20260505010438 31 0.0 0.0 0.00 0.00 0.00 80 1011.9
20260505005934 31 0.0 0.0 0.00 0.00 0.00 80 1011.9
20260505005431 31 0.0 0.0 0.00 0.00 0.00 78 1012.3
20260505004929 31 0.0 0.0 0.00 0.00 0.00 76 1011.9
20260505004425 31 0.0 0.0 0.00 0.00 0.00 77 1012.3
20260505003922 31 0.0 0.0 0.00 0.00 0.00 79 1012.3
20260505003419 31 0.0 0.0 0.00 0.00 0.00 76 1012.3
20260505002915 31 0.0 0.0 0.00 0.00 0.00 76 1011.9
20260505002412 31 0.0 0.0 0.00 0.00 0.00 77 1012.3
20260505001910 31 0.0 0.0 0.00 0.00 0.00 76 1011.9
20260505001408 31 0.0 0.0 0.00 0.00 0.00 77 1011.9
20260505000905 31 0.0 0.0 0.00 0.00 0.00 77 1012.3
20260505000403 31 0.0 0.0 0.00 0.00 0.00 77 1012.3
20260504235859 31 0.0 0.0 0.00 0.00 0.00 77 1011.9
20260504235356 31 0.0 0.0 0.00 0.00 0.00 77 1012.3
20260504234852 31 0.0 0.0 0.00 0.00 0.00 77 1012.3
20260504234350 31 0.0 0.0 0.00 0.00 0.00 77 1012.3
20260504233846 31 0.0 0.0 0.00 0.00 0.00 78 1012.3
20260504233342 31 0.0 0.0 0.00 0.00 0.00 78 1012.3
20260504232839 31 0.0 0.0 0.00 0.00 0.00 78 1011.9
20260504232336 31 0.0 0.0 0.00 0.00 0.00 78 1012.3
20260504231833 31 0.0 0.0 0.00 0.00 0.00 79 1012.3
20260504231329 31 0.0 0.0 0.00 0.00 0.00 79 1012.3
20260504230825 30 0.0 0.0 0.00 0.00 0.00 79 1011.9
20260504230323 30 0.0 0.0 0.00 0.00 0.00 79 1011.9
20260504225822 30 0.0 0.0 0.00 0.00 0.00 79 1011.9
20260504225318 30 0.0 0.0 0.00 0.00 0.00 80 1011.9
20260504224815 30 0.0 0.0 0.00 0.00 0.00 80 1011.9
20260504224312 30 0.0 0.0 0.00 0.00 0.00 80 1011.9
20260504223809 30 0.0 0.0 0.00 0.00 0.00 81 1011.6
20260504223304 30 0.0 0.0 0.00 0.00 0.00 81 1011.9
20260504222801 30 0.0 0.0 0.00 0.00 0.00 81 1011.9
20260504222258 30 0.0 0.0 0.00 0.00 0.00 81 1011.6
20260504221756 30 0.0 0.0 0.00 0.00 0.00 81 1011.6
20260504221253 30 0.0 0.0 0.00 0.00 0.00 81 1011.6
20260504220749 30 0.0 0.0 0.00 0.00 0.00 81 1011.6
20260504220247 30 0.0 0.0 0.00 0.00 0.00 81 1011.6
20260504215744 30 0.0 0.0 0.00 0.00 0.00 81 1011.9
20260504215240 30 0.0 0.0 0.00 0.00 0.00 81 1011.6
20260504214736 30 0.0 0.0 0.00 0.00 0.00 81 1011.6
20260504214233 30 0.0 0.0 0.00 0.00 0.00 81 1011.6
20260504213730 30 0.0 0.0 0.00 0.00 0.00 81 1011.6
20260504213226 30 0.0 0.0 0.00 0.00 0.00 81 1011.6
20260504212723 30 0.0 0.0 0.00 0.00 0.00 81 1011.6
20260504212219 30 0.0 0.0 0.00 0.00 0.00 80 1011.6
20260504211717 30 0.0 0.0 0.00 0.00 0.00 80 1011.3
20260504211213 30 0.0 0.0 0.00 0.00 0.00 80 1011.6
20260504210711 30 0.0 0.0 0.00 0.00 0.00 79 1011.3
20260504210208 30 0.0 0.0 0.00 0.00 0.00 79 1011.3
20260504205705 30 0.0 0.0 0.00 0.00 0.00 79 1011.3
20260504205202 30 0.0 0.0 0.00 0.00 0.00 79 1011.3
20260504204700 30 0.0 0.0 0.00 0.00 0.00 79 1011.3
20260504204159 30 0.0 0.0 0.00 0.00 0.00 79 1011.3
20260504203657 30 0.0 0.0 0.00 0.00 0.00 79 1010.9
20260504203155 30 0.0 0.0 0.00 0.00 0.00 80 1010.9
20260504202654 30 0.0 0.0 0.00 0.00 0.00 81 1011.3
20260504202152 30 0.0 0.0 0.00 0.00 0.00 81 1010.9
20260504201649 30 0.0 0.0 0.00 0.00 0.00 81 1010.9
20260504201146 30 0.0 0.0 0.00 0.00 0.00 81 1010.6
20260504200643 30 0.0 0.0 0.00 0.00 0.00 81 1010.9
20260504200140 30 0.0 0.0 0.00 0.00 0.00 80 1010.6
20260504195636 30 0.0 0.0 0.00 0.00 0.00 80 1010.9
20260504195132 30 0.0 0.0 0.00 0.00 0.00 80 1010.9
20260504194629 30 0.0 0.0 0.00 0.00 0.00 80 1010.9
20260504194125 30 0.0 0.0 0.00 0.00 0.00 80 1010.9
20260504193621 30 0.0 0.0 0.00 0.00 0.00 80 1010.9
20260504193120 30 0.0 0.0 0.00 0.00 0.00 80 1010.9
20260504192618 30 0.0 0.0 0.00 0.00 0.00 80 1010.9
20260504192115 30 0.0 0.0 0.00 0.00 0.00 79 1010.9
20260504191614 30 0.0 0.0 0.00 0.00 0.00 79 1010.9
20260504191109 30 0.0 0.0 0.00 0.00 0.00 79 1011.3
20260504190606 30 0.0 0.0 0.00 0.00 0.00 79 1010.9
20260504185559 30 0.0 0.0 0.00 0.00 0.00 79 1011.3
20260504185055 30 0.0 0.0 0.00 0.00 0.00 79 1010.9
20260504184551 30 0.0 0.0 0.00 0.00 0.00 79 1010.9
20260504184046 30 0.0 0.0 0.00 0.00 0.00 79 1010.9
20260504183544 30 0.0 0.0 0.00 0.00 0.00 79 1011.3
20260504183042 30 0.0 0.0 0.00 0.00 0.00 78 1011.3
20260504182539 30 0.0 0.0 0.00 0.00 0.00 79 1010.9
20260504182036 30 0.0 0.0 0.00 0.00 0.00 78 1011.3
20260504181533 30 0.0 0.0 0.00 0.00 0.00 78 1011.3
20260504181031 30 0.0 0.0 0.00 0.00 0.00 78 1011.3
20260504180530 30 0.0 0.0 0.00 0.00 0.00 78 1011.3
20260504180028 30 0.0 0.0 0.00 0.00 0.00 78 1011.3
20260504175525 30 0.0 0.0 0.00 0.00 0.00 77 1011.3
20260504175022 30 0.0 0.0 0.00 0.00 0.00 77 1011.6
20260504174520 31 0.0 0.0 0.00 0.00 0.00 77 1011.3
20260504174017 31 0.0 0.0 0.00 0.00 0.00 77 1011.3
20260504173513 31 0.0 0.0 0.00 0.00 0.00 77 1011.3
20260504173011 31 0.0 0.0 0.00 0.00 0.00 77 1011.6
20260504172507 31 0.0 0.0 0.00 0.00 0.00 77 1011.9
20260504172003 31 0.0 0.0 0.00 0.00 0.00 77 1011.6
20260504171500 31 0.0 0.0 0.00 0.00 0.00 77 1011.9
20260504170957 31 0.0 0.0 0.00 0.00 0.00 76 1011.6
20260504170453 31 0.0 0.0 0.00 0.00 0.00 76 1011.6
20260504160413 31 0.0 0.0 0.00 0.00 0.00 75 1012.3
20260504150837 31 0.0 0.0 0.00 0.00 0.00 77 1013.0
20260504150334 31 0.0 0.0 0.00 0.00 0.00 77 1012.6
20260504141304 31 0.0 0.0 0.00 0.00 0.00 77 1012.3
20260504140800 31 0.0 0.0 0.00 0.00 0.00 77 1011.9
20260504140256 31 0.0 0.0 0.00 0.00 0.00 77 1012.3
20260504130725 32 0.0 0.0 0.00 0.00 0.00 75 1011.6
20260504130220 32 0.0 0.0 0.00 0.00 0.00 75 1011.6
20260504120145 32 0.0 0.0 0.00 0.00 0.00 74 1011.6
20260504110612 33 0.0 0.0 0.00 0.00 0.00 74 1010.9
20260504110108 33 0.0 0.0 0.00 0.00 0.00 74 1010.9
20260504100534 34 0.0 0.0 0.00 0.00 0.00 66 1009.9
20260504081927 36 0.0 0.0 0.00 0.00 0.00 60 1009.6
20260504081424 36 0.0 0.0 0.00 0.00 0.00 59 1009.6
20260504080920 36 0.0 0.0 0.00 0.00 0.00 59 1009.6
20260504080417 36 0.0 0.0 0.00 0.00 0.00 60 1009.6
20260504070344 35 0.0 0.0 0.00 0.00 0.00 62 1010.2